Regional Weather Roundup
Issued by NWS Green Bay, WI

Home | Current Version | Previous Version | Graphics & Text | Print | Product List | Glossary Off
Versions: 1 2 3 4 5 6 7 8 9 10 11 12 13 14 15 16 17 18 19 20 21 22 23 24 25 26 27 28 29 30 31 32 33 34 35 36 37 38 39 40 41 42 43 44 45 46 47 48 49 50

370
ASUS43 KGRB 280711
RWRGRB

NORTH-CENTRAL AND NORTHEAST WISCONSIN REGIONAL WEATHER ROUNDUP
NATIONAL WEATHER SERVICE GREEN BAY WI
200 AM CDT WED JUN 28 2017

WIZ005-009-010>012-018-019-280800-
NORTH CENTRAL WISCONSIN

CITY           SKY/WX    TMP DP  RH WIND       PRES   REMARKS
IRONWOOD       MOCLDY    60  47  61 S7        29.86F
MANITOWISH WTR CLEAR     55  49  79 S7        29.89F
ARBOR VITAE    CLEAR     55  48  78 S6        29.89F
EAGLE RIVER    CLEAR     55  46  71 CALM      29.91F
LAND O LAKES   PTCLDY    55  48  78 S5        29.92F
RHINELANDER    CLEAR     57  48  72 SW7       29.92F
PHILLIPS       CLOUDY    55  47  75 S6        29.87F
ANTIGO         CLEAR     51  48  87 SW5       29.94F
TOMAHAWK       NOT AVBL
MERRILL        CLEAR     56  48  75 S3        29.92F
$$

WIZ013-073-280800-
NORTHEAST WISCONSIN

CITY           SKY/WX    TMP DP  RH WIND       PRES   REMARKS
IRON MOUNTAIN  MOCLDY    58  47  66 S3        29.91F
MARINETTE      CLOUDY    62  54  74 SW6       29.95F
OCONTO         CLEAR     58  50  76 CALM      29.94F
$$

WIZ017-030-035>037-045-280800-
CENTRAL WISCONSIN

CITY           SKY/WX    TMP DP  RH WIND       PRES   REMARKS
MEDFORD        CLOUDY    54  47  79 SE8       29.88F
WAUSAU           N/A    N/A N/A N/A MISG      29.90F
MOSINEE        CLEAR     52  48  87 SE6       29.92F
MARSHFIELD     PTCLDY    54  46  74 S6        29.89F
WISC RAPIDS    CLOUDY    56  48  74 S5        29.92F
STEVENS POINT  PTCLDY    56  46  70 S6        29.93F
WAUPACA        CLEAR     55  52  89 CALM      29.94F
SHAWANO        CLEAR     59  52  77 CALM      29.94F
CLINTONVILLE   CLEAR     54  46  76 SE5       29.94F
WAUTOMA        CLOUDY    54  50  86 SE3       29.94F
$$

WIZ038-039-048-051-280800-
FOX VALLEY

CITY           SKY/WX    TMP DP  RH WIND       PRES   REMARKS
NWS GREEN BAY  CLEAR     58  53  84 S5        29.96F
APPLETON       PTCLDY    55  45  67 S7        29.95F
OSHKOSH        CLEAR     55  49  80 S7        29.96F
FOND DU LAC    CLEAR     57  48  72 S7        29.98F
$$

WIZ022-050-052-280800-
EAST CENTRAL WISCONSIN

CITY           SKY/WX    TMP DP  RH WIND       PRES   REMARKS
EPHRAIM        FAIR      59  48  67 S5        29.94F
WASHINGTON ISL FAIR      64  50  61 SW8       29.94S
STURGEON BAY     N/A     60  50  69 S10       29.97F
MANITOWOC      PTCLDY    60  49  66 S6        29.99F
SHEBOYGAN      CLEAR     54  52  93 SW6       30.00F
$$

LMZ563-521-522-541>543-280800-
LAKESHORE

STATION/POSITION TIME  TEMP    WIND        PRES    VSBY  WAVE
                       AIR SEA DIR/SP/G                  HT/PER
                 (UTC) (F)     (DEG/KT/KT) (MB)    (MI)  (FT/S)
SHEBOYGAN LKSHOR 0700   60     210/  7/  8 1015.5F
KEWAUNEE LKSHORE 0642          190/  8/ 13   N/A
NORTHPORT PIER   0640   61     180/  3/  6 1013.9F
N MID LAKE BUOY  0650   57 55  190/ 12/ 14 1014.7F         3/ 5
S GREEN BAY BUOY 0700   66     200/ 16/ 19 1013.9
SISTER BAY LKSHO 0623   65     180/ 11/ 14   N/A
CHAMBERS ISLAND  0640   65     170/  5/ 10 1013.2F
MENOMINEE LKSHOR 0642          200/  8/ 12   N/A
$$




USA.gov is the U.S. government's official web portal to all federal, state and local government web resources and services.